Time,TemperatureF,DewpointF,PressureIn,WindDirection,WindDirectionDegrees,WindSpeedMPH,WindSpeedGustMPH,Humidity,HourlyPrecipIn,Conditions,Clouds,dailyrainin,SoftwareType,DateUTC
2013-04-23 00:03:00,57.0,38.0,30.14,ENE,70,0.0,0.0,48,0.00,,,0.00,,2013-04-23 04:03:00,
2013-04-23 00:12:00,57.0,38.0,30.14,ENE,70,0.0,0.0,48,0.00,,,0.00,,2013-04-23 04:12:00,
2013-04-23 00:23:00,56.0,37.0,30.14,ENE,70,0.0,0.0,49,0.00,,,0.00,,2013-04-23 04:23:00,
2013-04-23 00:33:00,56.0,37.0,30.14,ENE,70,0.0,0.0,49,0.00,,,0.00,,2013-04-23 04:33:00,
2013-04-23 00:43:00,56.0,37.0,30.14,ENE,70,0.0,0.0,49,0.00,,,0.00,,2013-04-23 04:43:00,
2013-04-23 00:53:00,55.0,37.0,30.14,ENE,70,0.0,0.0,51,0.00,,,0.00,,2013-04-23 04:53:00,
2013-04-23 01:02:00,54.0,37.0,30.14,ENE,70,0.0,0.0,53,0.00,,,0.00,,2013-04-23 05:02:00,
2013-04-23 01:12:00,54.0,37.0,30.14,ENE,70,0.0,0.0,53,0.00,,,0.00,,2013-04-23 05:12:00,
2013-04-23 01:22:00,54.0,37.0,30.14,ENE,70,0.0,0.0,53,0.00,,,0.00,,2013-04-23 05:22:00,
2013-04-23 01:32:00,54.0,38.0,30.14,ENE,70,0.0,0.0,54,0.00,,,0.00,,2013-04-23 05:32:00,
2013-04-23 01:42:00,54.0,38.0,30.14,ENE,70,0.0,0.0,54,0.00,,,0.00,,2013-04-23 05:42:00,
2013-04-23 01:52:00,53.0,38.0,30.14,ENE,70,0.0,0.0,56,0.00,,,0.00,,2013-04-23 05:52:00,
2013-04-23 02:02:00,54.0,38.0,30.14,ENE,70,0.0,0.0,55,0.00,,,0.00,,2013-04-23 06:02:00,
2013-04-23 02:12:00,54.0,38.0,30.14,ENE,70,0.0,0.0,55,0.00,,,0.00,,2013-04-23 06:12:00,
2013-04-23 02:21:00,54.0,38.0,30.14,ENE,70,0.0,0.0,54,0.00,,,0.00,,2013-04-23 06:21:00,
2013-04-23 02:33:00,54.0,37.0,30.13,ENE,70,0.0,0.0,53,0.00,,,0.00,,2013-04-23 06:33:00,
2013-04-23 02:42:00,54.0,37.0,30.13,ENE,70,0.0,0.0,53,0.00,,,0.00,,2013-04-23 06:42:00,
2013-04-23 02:52:00,55.0,38.0,30.13,ENE,68,0.0,0.0,52,0.00,,,0.00,,2013-04-23 06:52:00,
2013-04-23 03:02:00,55.0,38.0,30.12,East,98,3.0,0.0,52,0.00,,,0.00,,2013-04-23 07:02:00,
2013-04-23 03:11:00,55.0,38.0,30.12,East,98,3.0,0.0,52,0.00,,,0.00,,2013-04-23 07:11:00,
2013-04-23 03:21:00,55.0,38.0,30.12,East,98,0.0,0.0,53,0.00,,,0.00,,2013-04-23 07:21:00,
2013-04-23 03:32:00,55.0,39.0,30.12,SE,138,0.0,2.0,54,0.00,,,0.00,,2013-04-23 07:32:00,
2013-04-23 03:42:00,55.0,39.0,30.12,SE,138,0.0,2.0,54,0.00,,,0.00,,2013-04-23 07:42:00,
2013-04-23 03:52:00,54.0,39.0,30.12,ESE,120,0.0,0.0,56,0.00,,,0.00,,2013-04-23 07:52:00,
2013-04-23 04:02:00,53.0,39.0,30.12,ESE,120,0.0,0.0,58,0.00,,,0.00,,2013-04-23 08:02:00,
2013-04-23 04:11:00,53.0,39.0,30.12,ESE,120,0.0,0.0,58,0.00,,,0.00,,2013-04-23 08:11:00,
2013-04-23 04:21:00,53.0,39.0,30.12,ESE,120,0.0,0.0,59,0.00,,,0.00,,2013-04-23 08:21:00,
2013-04-23 04:32:00,53.0,39.0,30.12,ESE,120,0.0,0.0,60,0.00,,,0.00,,2013-04-23 08:32:00,
2013-04-23 04:42:00,53.0,39.0,30.12,ESE,120,0.0,0.0,60,0.00,,,0.00,,2013-04-23 08:42:00,
2013-04-23 04:52:00,52.0,39.0,30.12,ESE,120,0.0,0.0,61,0.00,,,0.00,,2013-04-23 08:52:00,
2013-04-23 05:02:00,52.0,39.0,30.11,ESE,120,0.0,0.0,61,0.00,,,0.00,,2013-04-23 09:02:00,
2013-04-23 05:11:00,52.0,39.0,30.11,ESE,120,0.0,0.0,61,0.00,,,0.00,,2013-04-23 09:11:00,
2013-04-23 05:21:00,52.0,40.0,30.12,ESE,120,0.0,0.0,63,0.00,,,0.00,,2013-04-23 09:21:00,
2013-04-23 05:33:00,51.0,39.0,30.11,ESE,120,0.0,0.0,64,0.00,,,0.00,,2013-04-23 09:33:00,
2013-04-23 05:43:00,51.0,39.0,30.11,ESE,120,0.0,0.0,64,0.00,,,0.00,,2013-04-23 09:43:00,
2013-04-23 05:53:00,51.0,39.0,30.11,ESE,120,0.0,0.0,64,0.00,,,0.00,,2013-04-23 09:53:00,
2013-04-23 06:03:00,52.0,40.0,30.10,SE,135,0.0,0.0,63,0.00,,,0.00,,2013-04-23 10:03:00,
2013-04-23 06:13:00,52.0,40.0,30.10,SE,135,0.0,0.0,63,0.00,,,0.00,,2013-04-23 10:13:00,
2013-04-23 06:23:00,52.0,39.0,30.10,SSE,150,3.0,3.0,62,0.00,,,0.00,,2013-04-23 10:23:00,
2013-04-23 06:33:00,52.0,39.0,30.09,South,174,5.0,5.0,61,0.00,,,0.00,,2013-04-23 10:33:00,
2013-04-23 06:42:00,52.0,39.0,30.09,South,174,5.0,5.0,61,0.00,,,0.00,,2013-04-23 10:42:00,
2013-04-23 06:52:00,52.0,39.0,30.10,SE,139,1.0,0.0,61,0.00,,,0.00,,2013-04-23 10:52:00,
2013-04-23 07:03:00,52.0,39.0,30.10,ESE,110,0.0,0.0,62,0.00,,,0.00,,2013-04-23 11:03:00,
2013-04-23 07:12:00,51.0,39.0,30.12,SE,132,0.0,0.0,64,0.00,,,0.00,,2013-04-23 11:12:00,
2013-04-23 07:21:00,51.0,39.0,30.12,SE,132,0.0,0.0,64,0.00,,,0.00,,2013-04-23 11:21:00,
2013-04-23 07:32:00,51.0,40.0,30.12,SE,132,0.0,0.0,66,0.00,,,0.00,,2013-04-23 11:32:00,
2013-04-23 07:42:00,50.0,39.0,30.13,SE,132,0.0,0.0,67,0.00,,,0.00,,2013-04-23 11:42:00,
2013-04-23 07:53:00,50.0,39.0,30.13,SE,132,0.0,0.0,67,0.00,,,0.00,,2013-04-23 11:53:00,
2013-04-23 08:02:00,52.0,40.0,30.13,SE,132,0.0,0.0,63,0.00,,,0.00,,2013-04-23 12:02:00,
2013-04-23 08:12:00,52.0,40.0,30.13,SE,132,0.0,0.0,63,0.00,,,0.00,,2013-04-23 12:12:00,
2013-04-23 08:22:00,53.0,41.0,30.14,SE,146,0.0,0.0,64,0.00,,,0.00,,2013-04-23 12:22:00,
2013-04-23 08:32:00,53.0,39.0,30.13,South,170,2.0,2.0,60,0.00,,,0.00,,2013-04-23 12:32:00,
2013-04-23 08:42:00,53.0,39.0,30.13,South,170,2.0,2.0,60,0.00,,,0.00,,2013-04-23 12:42:00,
2013-04-23 08:52:00,55.0,42.0,30.14,SSE,148,0.0,0.0,61,0.00,,,0.00,,2013-04-23 12:52:00,
2013-04-23 09:01:00,55.0,41.0,30.15,SSE,148,0.0,0.0,59,0.00,,,0.00,,2013-04-23 13:01:00,
2013-04-23 09:11:00,55.0,41.0,30.15,SSE,148,0.0,0.0,59,0.00,,,0.00,,2013-04-23 13:11:00,
2013-04-23 09:22:00,56.0,41.0,30.14,SSW,208,1.0,4.0,58,0.00,,,0.00,,2013-04-23 13:22:00,
2013-04-23 09:32:00,57.0,41.0,30.14,SSE,166,2.0,2.0,54,0.00,,,0.00,,2013-04-23 13:32:00,
2013-04-23 09:42:00,57.0,41.0,30.14,SSE,166,2.0,2.0,54,0.00,,,0.00,,2013-04-23 13:42:00,
2013-04-23 09:52:00,59.0,42.0,30.15,South,181,0.0,5.0,54,0.00,,,0.00,,2013-04-23 13:52:00,
2013-04-23 10:02:00,60.0,43.0,30.16,SSE,162,4.0,4.0,53,0.00,,,0.00,,2013-04-23 14:02:00,
2013-04-23 10:11:00,60.0,43.0,30.16,SSE,162,4.0,4.0,53,0.00,,,0.00,,2013-04-23 14:11:00,
2013-04-23 10:22:00,60.0,43.0,30.16,SSE,152,3.0,4.0,53,0.00,,,0.00,,2013-04-23 14:22:00,
2013-04-23 10:32:00,61.0,43.0,30.15,SE,145,4.0,4.0,52,0.00,,,0.00,,2013-04-23 14:32:00,
2013-04-23 10:42:00,61.0,43.0,30.15,SE,145,4.0,4.0,52,0.00,,,0.00,,2013-04-23 14:42:00,
2013-04-23 10:52:00,63.0,45.0,30.16,SE,145,2.0,4.0,52,0.00,,,0.00,,2013-04-23 14:52:00,
2013-04-23 11:01:00,63.0,45.0,30.16,SE,145,2.0,4.0,52,0.00,,,0.00,,2013-04-23 15:01:00,
2013-04-23 11:12:00,64.0,46.0,30.16,ESE,117,1.0,0.0,52,0.00,,,0.00,,2013-04-23 15:12:00,
2013-04-23 11:21:00,65.0,46.0,30.16,SSE,159,1.0,0.0,50,0.00,,,0.00,,2013-04-23 15:21:00,
2013-04-23 11:32:00,66.0,46.0,30.16,SE,134,2.0,0.0,49,0.00,,,0.00,,2013-04-23 15:32:00,
2013-04-23 11:42:00,66.0,46.0,30.16,SE,134,2.0,0.0,49,0.00,,,0.00,,2013-04-23 15:42:00,
2013-04-23 11:53:00,67.0,46.0,30.15,SE,131,1.0,0.0,47,0.00,,,0.00,,2013-04-23 15:53:00,
2013-04-23 12:03:00,68.0,46.0,30.15,SE,131,0.0,0.0,46,0.00,,,0.00,,2013-04-23 16:03:00,
2013-04-23 12:12:00,68.0,46.0,30.15,SE,131,0.0,0.0,46,0.00,,,0.00,,2013-04-23 16:12:00,
2013-04-23 12:23:00,68.0,48.0,30.14,South,188,1.0,0.0,48,0.00,,,0.00,,2013-04-23 16:23:00,
2013-04-23 12:34:00,68.0,46.0,30.14,SE,139,5.0,5.0,46,0.00,,,0.00,,2013-04-23 16:34:00,
2013-04-23 12:43:00,68.0,46.0,30.14,SE,139,5.0,5.0,46,0.00,,,0.00,,2013-04-23 16:43:00,
2013-04-23 12:53:00,68.0,45.0,30.13,SE,138,5.0,7.0,44,0.00,,,0.00,,2013-04-23 16:53:00,
2013-04-23 13:02:00,70.0,48.0,30.13,SSE,148,0.0,0.0,45,0.00,,,0.00,,2013-04-23 17:02:00,
2013-04-23 13:12:00,70.0,46.0,30.12,ESE,117,5.0,8.0,42,0.00,,,0.00,,2013-04-23 17:12:00,
2013-04-23 13:22:00,70.0,46.0,30.12,ESE,117,5.0,8.0,42,0.00,,,0.00,,2013-04-23 17:22:00,
2013-04-23 13:32:00,70.0,47.0,30.11,SSE,150,3.0,0.0,44,0.00,,,0.00,,2013-04-23 17:32:00,
2013-04-23 13:42:00,70.0,47.0,30.11,SSE,150,3.0,0.0,44,0.00,,,0.00,,2013-04-23 17:42:00,
2013-04-23 13:53:00,70.0,48.0,30.11,SE,131,4.0,4.0,46,0.00,,,0.00,,2013-04-23 17:53:00,
2013-04-23 14:02:00,71.0,49.0,30.11,SSE,156,2.0,0.0,45,0.00,,,0.00,,2013-04-23 18:02:00,
2013-04-23 14:12:00,71.0,49.0,30.11,SSE,156,2.0,0.0,45,0.00,,,0.00,,2013-04-23 18:12:00,
2013-04-23 14:22:00,71.0,48.0,30.10,SE,138,2.0,0.0,44,0.00,,,0.00,,2013-04-23 18:22:00,
2013-04-23 14:32:00,71.0,47.0,30.10,SSE,156,1.0,0.0,43,0.00,,,0.00,,2013-04-23 18:32:00,
2013-04-23 14:42:00,71.0,47.0,30.10,SSE,156,1.0,0.0,43,0.00,,,0.00,,2013-04-23 18:42:00,
2013-04-23 14:52:00,71.0,47.0,30.09,SE,131,4.0,4.0,42,0.00,,,0.00,,2013-04-23 18:52:00,
2013-04-23 15:02:00,71.0,47.0,30.09,South,174,3.0,3.0,43,0.00,,,0.00,,2013-04-23 19:02:00,
2013-04-23 15:11:00,71.0,47.0,30.09,South,174,3.0,3.0,43,0.00,,,0.00,,2013-04-23 19:11:00,
2013-04-23 15:22:00,71.0,47.0,30.08,South,179,0.0,0.0,42,0.00,,,0.00,,2013-04-23 19:22:00,
2013-04-23 15:32:00,72.0,48.0,30.07,South,181,0.0,0.0,43,0.00,,,0.00,,2013-04-23 19:32:00,
2013-04-23 15:42:00,72.0,48.0,30.07,South,181,0.0,0.0,43,0.00,,,0.00,,2013-04-23 19:42:00,
2013-04-23 15:52:00,72.0,47.0,30.06,SSE,160,0.0,5.0,41,0.00,,,0.00,,2013-04-23 19:52:00,
2013-04-23 16:02:00,72.0,47.0,30.06,SW,229,1.0,0.0,41,0.00,,,0.00,,2013-04-23 20:02:00,
2013-04-23 16:11:00,72.0,47.0,30.06,SW,229,1.0,0.0,41,0.00,,,0.00,,2013-04-23 20:11:00,
2013-04-23 16:22:00,72.0,47.0,30.06,ESE,110,0.0,0.0,41,0.00,,,0.00,,2013-04-23 20:22:00,
2013-04-23 16:32:00,70.0,46.0,30.07,SE,129,3.0,8.0,42,0.00,,,0.00,,2013-04-23 20:32:00,
2013-04-23 16:42:00,70.0,46.0,30.07,SE,129,3.0,8.0,42,0.00,,,0.00,,2013-04-23 20:42:00,
2013-04-23 16:52:00,70.0,46.0,30.07,SSE,159,0.0,0.0,43,0.00,,,0.00,,2013-04-23 20:52:00,
2013-04-23 17:02:00,70.0,47.0,30.07,SE,136,0.0,0.0,44,0.00,,,0.00,,2013-04-23 21:02:00,
2013-04-23 17:12:00,70.0,47.0,30.07,SE,136,0.0,0.0,44,0.00,,,0.00,,2013-04-23 21:12:00,
2013-04-23 17:22:00,70.0,47.0,30.06,East,93,0.0,0.0,44,0.00,,,0.00,,2013-04-23 21:22:00,
2013-04-23 17:33:00,69.0,47.0,30.04,SSE,153,0.0,0.0,45,0.00,,,0.00,,2013-04-23 21:33:00,
2013-04-23 17:43:00,69.0,47.0,30.04,SSE,153,0.0,0.0,45,0.00,,,0.00,,2013-04-23 21:43:00,
2013-04-23 17:52:00,69.0,46.0,30.01,ESE,111,5.0,7.0,43,0.00,,,0.00,,2013-04-23 21:52:00,
2013-04-23 18:03:00,70.0,46.0,30.02,East,86,0.0,0.0,43,0.00,,,0.00,,2013-04-23 22:03:00,
2013-04-23 18:12:00,70.0,46.0,30.02,East,86,0.0,0.0,43,0.00,,,0.00,,2013-04-23 22:12:00,
2013-04-23 18:22:00,71.0,48.0,30.04,South,181,0.0,0.0,44,0.00,,,0.00,,2013-04-23 22:22:00,
2013-04-23 18:33:00,70.0,48.0,30.03,SSE,150,0.0,0.0,45,0.00,,,0.00,,2013-04-23 22:33:00,
2013-04-23 18:42:00,70.0,48.0,30.03,SSE,150,0.0,0.0,45,0.00,,,0.00,,2013-04-23 22:42:00,
2013-04-23 18:52:00,70.0,47.0,30.03,ESE,122,2.0,0.0,44,0.00,,,0.00,,2013-04-23 22:52:00,
2013-04-23 19:03:00,69.0,46.0,29.99,South,184,3.0,3.0,44,0.00,,,0.00,,2013-04-23 23:03:00,
2013-04-23 19:12:00,69.0,46.0,29.99,South,184,3.0,3.0,44,0.00,,,0.00,,2013-04-23 23:12:00,
2013-04-23 19:22:00,69.0,46.0,29.96,South,186,5.0,5.0,44,0.00,,,0.00,,2013-04-23 23:22:00,
2013-04-23 19:32:00,69.0,47.0,29.98,South,181,0.0,0.0,46,0.00,,,0.00,,2013-04-23 23:32:00,
2013-04-23 19:42:00,68.0,48.0,29.99,SW,222,0.0,0.0,48,0.00,,,0.00,,2013-04-23 23:42:00,
2013-04-23 19:52:00,68.0,48.0,29.99,SW,222,0.0,0.0,48,0.00,,,0.00,,2013-04-23 23:52:00,
2013-04-23 20:01:00,68.0,47.0,29.99,South,174,0.0,0.0,47,0.00,,,0.00,,2013-04-24 00:01:00,
2013-04-23 20:11:00,68.0,47.0,29.99,South,174,0.0,0.0,47,0.00,,,0.00,,2013-04-24 00:11:00,
2013-04-23 20:22:00,68.0,47.0,29.99,SSW,193,1.0,3.0,47,0.00,,,0.00,,2013-04-24 00:22:00,
2013-04-23 20:32:00,67.0,46.0,29.98,South,183,2.0,0.0,47,0.00,,,0.00,,2013-04-24 00:32:00,
2013-04-23 20:42:00,67.0,46.0,29.98,South,183,2.0,0.0,47,0.00,,,0.00,,2013-04-24 00:42:00,
2013-04-23 20:52:00,67.0,47.0,29.98,South,170,0.0,0.0,49,0.00,,,0.00,,2013-04-24 00:52:00,
2013-04-23 21:02:00,65.0,46.0,29.98,SSE,152,0.0,0.0,50,0.00,,,0.00,,2013-04-24 01:02:00,
2013-04-23 21:11:00,65.0,46.0,29.98,SSE,152,0.0,0.0,50,0.00,,,0.00,,2013-04-24 01:11:00,
2013-04-23 21:21:00,65.0,46.0,29.98,SSE,167,0.0,1.0,51,0.00,,,0.00,,2013-04-24 01:21:00,
2013-04-23 21:32:00,64.0,47.0,29.98,SE,142,0.0,0.0,53,0.00,,,0.00,,2013-04-24 01:32:00,
2013-04-23 21:42:00,64.0,47.0,29.98,SE,142,0.0,0.0,53,0.00,,,0.00,,2013-04-24 01:42:00,
2013-04-23 21:52:00,64.0,47.0,29.98,SE,142,0.0,0.0,53,0.00,,,0.00,,2013-04-24 01:52:00,
2013-04-23 22:02:00,64.0,47.0,29.98,SE,142,0.0,0.0,53,0.00,,,0.00,,2013-04-24 02:02:00,
2013-04-23 22:42:00,63.0,46.0,29.98,SSE,150,1.0,0.0,53,0.00,,,0.00,,2013-04-24 02:42:00,
2013-04-23 23:02:00,63.0,46.0,29.98,SSE,153,2.0,2.0,54,0.00,,,0.00,,2013-04-24 03:02:00,
2013-04-23 23:11:00,62.0,46.0,29.97,South,173,0.0,0.0,55,0.00,,,0.00,,2013-04-24 03:11:00,
2013-04-23 23:18:00,62.0,46.0,29.97,South,173,0.0,0.0,55,0.00,,,0.00,,2013-04-24 03:18:00,
2013-04-23 23:30:00,62.0,46.0,29.97,SE,142,1.0,1.0,55,0.00,,,0.00,,2013-04-24 03:30:00,
2013-04-23 23:51:00,61.0,46.0,29.97,South,174,1.0,0.0,57,0.00,,,0.00,,2013-04-24 03:51:00,